Powrót do katalogu

STARLINK-33576

AktywnyŁącznośćVLEO
NORAD 62775·PAYLOAD·🇺🇸 United States

Wystrzelony Jan 21, 2025 z Vandenberg Space Force Base

Loading…

Następne Przeloty (najbliższe 24 godziny)

TLE

ŚwieżeSource: CelesTrak SupGP

Epoka: Sep 15, 2026, 03:30 UTC

1 62775C 25015T   26258.14631944  .00004502  00000+0  13305-3 0  2588
2 62775  53.1567 158.4686 0001186  88.4321 285.1518 15.34381490    15

Śledź STARLINK-33576 w czasie rzeczywistym z AllMySat

Download on the App Store